Time,TemperatureF,DewpointF,PressureIn,WindDirection,WindDirectionDegrees,WindSpeedMPH,WindSpeedGustMPH,Humidity,HourlyPrecipIn,Conditions,Clouds,dailyrainin,SolarRadiationWatts/m^2,SoftwareType,DateUTC
2013-06-21 00:03:00,81.5,68.6,29.66,SSE,163,16.0,16.0,65,0.00,,SKC,0.00,0.00,VWS V14.00,2013-06-21 05:03:00,
2013-06-21 00:08:00,81.4,68.5,29.64,SE,138,10.0,23.0,65,0.00,,SKC,0.00,0.00,VWS V14.00,2013-06-21 05:08:00,
2013-06-21 00:13:00,81.3,68.4,29.64,ESE,117,12.0,19.0,65,0.00,,SKC,0.00,0.00,VWS V14.00,2013-06-21 05:13:00,
2013-06-21 00:18:00,81.3,68.4,29.63,SE,140,20.0,20.0,65,0.00,,SKC,0.00,0.00,VWS V14.00,2013-06-21 05:18:00,
2013-06-21 00:23:00,81.2,68.3,29.63,SSE,153,18.0,21.0,65,0.00,,SKC,0.00,0.00,VWS V14.00,2013-06-21 05:23:00,
2013-06-21 00:28:00,81.1,68.7,29.65,SSW,198,11.0,19.0,66,0.00,,SKC,0.00,0.00,VWS V14.00,2013-06-21 05:28:00,
2013-06-21 00:33:00,81.1,68.7,29.66,SE,144,12.0,17.0,66,0.00,,SKC,0.00,0.00,VWS V14.00,2013-06-21 05:33:00,
2013-06-21 00:38:00,81.0,68.6,29.65,SSE,166,11.0,17.0,66,0.00,,SKC,0.00,0.00,VWS V14.00,2013-06-21 05:38:00,
2013-06-21 00:43:00,81.0,68.6,29.62,ESE,121,11.0,19.0,66,0.00,,SKC,0.00,0.00,VWS V14.00,2013-06-21 05:43:00,
2013-06-21 00:48:00,80.8,68.4,29.62,SE,146,10.0,20.0,66,0.00,,SKC,0.00,0.00,VWS V14.00,2013-06-21 05:48:00,
2013-06-21 00:55:00,80.5,69.0,29.61,SSW,196,7.0,16.0,68,0.00,,SKC,0.00,0.00,VWS V14.00,2013-06-21 05:55:00,
2013-06-21 01:00:00,79.9,69.2,29.61,SE,132,16.0,16.0,70,0.00,,SKC,0.00,0.00,VWS V14.00,2013-06-21 06:00:00,
2013-06-21 01:05:00,79.1,69.3,29.61,SE,136,10.0,18.0,72,0.00,,SKC,0.00,0.00,VWS V14.00,2013-06-21 06:05:00,
2013-06-21 01:10:00,78.5,69.1,29.61,SE,145,9.0,14.0,73,0.00,,SKC,0.00,0.00,VWS V14.00,2013-06-21 06:10:00,
2013-06-21 01:15:00,78.1,69.1,29.60,SE,144,10.0,13.0,74,0.00,,SKC,0.00,0.00,VWS V14.00,2013-06-21 06:15:00,
2013-06-21 01:20:00,78.0,69.1,29.60,South,171,4.0,12.0,74,0.00,,SKC,0.00,0.00,VWS V14.00,2013-06-21 06:20:00,
2013-06-21 01:25:00,78.0,68.7,29.60,SSE,148,7.0,15.0,73,0.00,,SKC,0.00,0.00,VWS V14.00,2013-06-21 06:25:00,
2013-06-21 01:30:00,78.0,68.7,29.58,South,187,8.0,19.0,73,0.00,,SKC,0.00,0.00,VWS V14.00,2013-06-21 06:30:00,
2013-06-21 01:41:00,78.4,68.6,29.60,SSW,201,10.0,21.0,72,0.00,,SKC,0.00,0.00,VWS V14.00,2013-06-21 06:41:00,
2013-06-21 01:46:00,78.3,69.3,29.59,SW,233,16.0,18.0,74,0.01,,SKC,0.01,0.00,VWS V14.00,2013-06-21 06:46:00,
2013-06-21 01:51:00,77.9,68.9,29.60,South,175,16.0,25.0,74,0.01,,SKC,0.01,0.00,VWS V14.00,2013-06-21 06:51:00,
2013-06-21 01:56:00,77.7,68.8,29.60,SSW,207,13.0,19.0,74,0.01,,SKC,0.01,0.00,VWS V14.00,2013-06-21 06:56:00,
2013-06-21 02:01:00,77.8,69.2,29.63,West,279,14.0,17.0,75,0.01,,SKC,0.01,0.00,VWS V14.00,2013-06-21 07:01:00,
2013-06-21 02:06:00,74.9,65.3,29.70,North,351,4.0,21.0,72,0.03,,SKC,0.03,0.00,VWS V14.00,2013-06-21 07:06:00,
2013-06-21 02:11:00,70.7,63.9,29.70,WNW,303,4.0,20.0,79,0.14,,SKC,0.14,0.00,VWS V14.00,2013-06-21 07:11:00,
2013-06-21 02:16:00,67.9,63.6,29.67,NNW,336,10.0,22.0,86,0.18,,SKC,0.18,0.00,VWS V14.00,2013-06-21 07:16:00,
2013-06-21 02:22:00,66.3,63.0,29.68,WSW,245,5.0,18.0,89,0.27,,SKC,0.27,0.00,VWS V14.00,2013-06-21 07:22:00,
2013-06-21 02:27:00,65.7,63.3,29.71,NNE,31,10.0,21.0,92,0.37,,SKC,0.37,0.00,VWS V14.00,2013-06-21 07:27:00,
2013-06-21 02:32:00,65.4,63.3,29.72,NNW,341,11.0,22.0,93,0.42,,SKC,0.42,0.00,VWS V14.00,2013-06-21 07:32:00,
2013-06-21 02:37:00,65.3,63.5,29.72,East,98,4.0,13.0,94,0.44,,SKC,0.44,0.00,VWS V14.00,2013-06-21 07:37:00,
2013-06-21 02:42:00,65.2,63.1,29.72,NW,316,4.0,10.0,93,0.45,,SKC,0.45,0.00,VWS V14.00,2013-06-21 07:42:00,
2013-06-21 02:47:00,65.2,63.4,29.74,NNW,327,13.0,21.0,94,0.45,,SKC,0.45,0.00,VWS V14.00,2013-06-21 07:47:00,
2013-06-21 02:52:00,65.0,63.2,29.76,NW,321,5.0,17.0,94,0.44,,SKC,0.45,0.00,VWS V14.00,2013-06-21 07:52:00,
2013-06-21 02:59:00,64.8,62.7,29.78,NW,326,3.0,4.0,93,0.44,,SKC,0.45,0.00,VWS V14.00,2013-06-21 07:59:00,
2013-06-21 03:06:00,64.6,62.8,29.76,NE,40,3.0,14.0,94,0.44,,SKC,0.45,0.00,VWS V14.00,2013-06-21 08:06:00,
2013-06-21 03:11:00,64.5,62.4,29.75,ESE,115,6.0,12.0,93,0.37,,SKC,0.45,0.00,VWS V14.00,2013-06-21 08:11:00,
2013-06-21 03:16:00,64.3,62.2,29.75,NNW,345,14.0,14.0,93,0.28,,SKC,0.45,0.00,VWS V14.00,2013-06-21 08:16:00,
2013-06-21 03:21:00,64.2,62.1,29.74,NE,42,3.0,11.0,93,0.24,,SKC,0.45,0.00,VWS V14.00,2013-06-21 08:21:00,
2013-06-21 03:26:00,64.0,61.6,29.72,North,5,1.0,25.0,92,0.14,,SKC,0.45,0.00,VWS V14.00,2013-06-21 08:26:00,
2013-06-21 03:31:00,63.8,61.4,29.71,NE,43,3.0,13.0,92,0.06,,SKC,0.45,0.00,VWS V14.00,2013-06-21 08:31:00,
2013-06-21 03:36:00,63.6,61.2,29.71,NE,40,9.0,17.0,92,0.02,,SKC,0.45,0.00,VWS V14.00,2013-06-21 08:36:00,
2013-06-21 03:41:00,63.6,61.2,29.72,ESE,108,10.0,10.0,92,0.01,,SKC,0.45,0.00,VWS V14.00,2013-06-21 08:41:00,
2013-06-21 03:46:00,63.6,60.9,29.70,ENE,63,8.0,17.0,91,0.00,,SKC,0.45,0.00,VWS V14.00,2013-06-21 08:46:00,
2013-06-21 03:51:00,63.6,60.9,29.73,ESE,121,7.0,9.0,91,0.00,,SKC,0.45,0.00,VWS V14.00,2013-06-21 08:51:00,
2013-06-21 03:56:00,63.6,60.9,29.72,East,90,7.0,9.0,91,0.00,,SKC,0.45,0.00,VWS V14.00,2013-06-21 08:56:00,
2013-06-21 04:01:00,63.7,60.7,29.71,NNE,26,3.0,11.0,90,0.00,,SKC,0.45,0.00,VWS V14.00,2013-06-21 09:01:00,
2013-06-21 04:06:00,63.7,60.7,29.70,NE,53,3.0,10.0,90,0.00,,SKC,0.45,0.00,VWS V14.00,2013-06-21 09:06:00,
2013-06-21 04:11:00,63.8,60.8,29.71,ESE,103,9.0,12.0,90,0.00,,SKC,0.45,0.00,VWS V14.00,2013-06-21 09:11:00,
2013-06-21 04:16:00,64.1,60.8,29.73,ESE,104,2.0,8.0,89,0.00,,SKC,0.45,0.00,VWS V14.00,2013-06-21 09:16:00,
2013-06-21 04:21:00,64.2,60.9,29.72,NNE,28,4.0,9.0,89,0.00,,SKC,0.45,0.00,VWS V14.00,2013-06-21 09:21:00,
2013-06-21 04:26:00,64.3,61.0,29.72,ENE,57,2.0,3.0,89,0.00,,SKC,0.45,0.00,VWS V14.00,2013-06-21 09:26:00,
2013-06-21 04:31:00,64.3,60.7,29.74,ENE,64,0.0,7.0,88,0.00,,SKC,0.45,0.00,VWS V14.00,2013-06-21 09:31:00,
2013-06-21 04:36:00,64.3,60.7,29.71,ESE,102,0.0,4.0,88,0.00,,SKC,0.45,0.00,VWS V14.00,2013-06-21 09:36:00,
2013-06-21 04:41:00,64.4,60.8,29.73,East,101,5.0,5.0,88,0.00,,SKC,0.45,0.00,VWS V14.00,2013-06-21 09:41:00,
2013-06-21 04:46:00,64.4,60.5,29.75,ESE,110,0.0,2.0,87,0.00,,SKC,0.45,0.00,VWS V14.00,2013-06-21 09:46:00,
2013-06-21 04:51:00,64.5,60.9,29.72,ENE,57,4.0,5.0,88,0.00,,SKC,0.45,0.00,VWS V14.00,2013-06-21 09:51:00,
2013-06-21 04:56:00,64.5,60.2,29.74,SE,140,3.0,4.0,86,0.00,,SKC,0.45,0.00,VWS V14.00,2013-06-21 09:56:00,
2013-06-21 05:01:00,64.7,60.1,29.75,South,182,0.0,4.0,85,0.00,,SKC,0.45,0.00,VWS V14.00,2013-06-21 10:01:00,
2013-06-21 05:06:00,64.9,60.6,29.75,South,182,0.0,2.0,86,0.00,,SKC,0.45,0.00,VWS V14.00,2013-06-21 10:06:00,
2013-06-21 05:12:00,64.9,61.3,29.72,SSE,150,0.0,2.0,88,0.00,,SKC,0.45,0.00,VWS V14.00,2013-06-21 10:12:00,
2013-06-21 05:17:00,64.7,60.4,29.72,SSE,150,2.0,3.0,86,0.00,,SKC,0.45,0.00,VWS V14.00,2013-06-21 10:17:00,
2013-06-21 05:22:00,64.5,60.5,29.73,SSE,150,0.0,3.0,87,0.00,,SKC,0.45,0.00,VWS V14.00,2013-06-21 10:22:00,
2013-06-21 05:27:00,64.5,60.5,29.73,SSE,150,0.0,3.0,87,0.00,,SKC,0.45,0.00,VWS V14.00,2013-06-21 10:27:00,
2013-06-21 05:32:00,64.3,60.7,29.72,SE,146,1.0,2.0,88,0.00,,SKC,0.45,0.00,VWS V14.00,2013-06-21 10:32:00,
2013-06-21 05:37:00,64.2,60.9,29.73,SE,146,0.0,1.0,89,0.00,,SKC,0.45,0.00,VWS V14.00,2013-06-21 10:37:00,
2013-06-21 05:42:00,64.1,60.5,29.74,SE,146,0.0,1.0,88,0.00,,SKC,0.45,0.00,VWS V14.00,2013-06-21 10:42:00,
2013-06-21 05:47:00,64.0,60.7,29.75,South,181,0.0,4.0,89,0.00,,SKC,0.45,0.00,VWS V14.00,2013-06-21 10:47:00,
2013-06-21 05:52:00,63.9,60.6,29.75,South,181,0.0,3.0,89,0.00,,SKC,0.45,0.00,VWS V14.00,2013-06-21 10:52:00,
2013-06-21 05:57:00,63.9,60.6,29.74,South,181,0.0,2.0,89,0.00,,SKC,0.45,0.00,VWS V14.00,2013-06-21 10:57:00,
2013-06-21 06:02:00,63.8,60.5,29.74,South,181,0.0,0.0,89,0.00,,SKC,0.45,0.00,VWS V14.00,2013-06-21 11:02:00,
2013-06-21 06:07:00,63.8,60.5,29.74,South,181,0.0,0.0,89,0.00,,SKC,0.45,0.00,VWS V14.00,2013-06-21 11:07:00,
2013-06-21 06:12:00,63.7,60.7,29.74,South,181,0.0,0.0,90,0.00,,SKC,0.45,5.00,VWS V14.00,2013-06-21 11:12:00,
2013-06-21 06:17:00,63.6,60.6,29.73,South,181,0.0,0.0,90,0.00,,SKC,0.45,5.00,VWS V14.00,2013-06-21 11:17:00,
2013-06-21 06:22:00,63.5,60.5,29.73,South,181,0.0,0.0,90,0.00,,SKC,0.45,7.00,VWS V14.00,2013-06-21 11:22:00,
2013-06-21 06:27:00,63.4,60.7,29.73,South,181,0.0,0.0,91,0.00,,SKC,0.45,9.00,VWS V14.00,2013-06-21 11:27:00,
2013-06-21 06:32:00,63.2,60.5,29.73,South,181,0.0,0.0,91,0.00,,SKC,0.45,11.00,VWS V14.00,2013-06-21 11:32:00,
2013-06-21 06:37:00,63.0,60.3,29.72,South,181,0.0,0.0,91,0.00,,SKC,0.45,14.00,VWS V14.00,2013-06-21 11:37:00,
2013-06-21 06:42:00,62.8,60.5,29.71,South,181,0.0,0.0,92,0.00,,SKC,0.45,19.00,VWS V14.00,2013-06-21 11:42:00,
2013-06-21 06:47:00,62.7,60.3,29.72,South,181,0.0,0.0,92,0.00,,SKC,0.45,28.00,VWS V14.00,2013-06-21 11:47:00,
2013-06-21 06:52:00,62.5,60.5,29.73,South,181,0.0,0.0,93,0.00,,SKC,0.45,37.00,VWS V14.00,2013-06-21 11:52:00,
2013-06-21 06:57:00,62.5,60.5,29.74,South,181,0.0,1.0,93,0.00,,SKC,0.45,46.00,VWS V14.00,2013-06-21 11:57:00,
2013-06-21 07:02:00,62.4,60.3,29.73,South,181,2.0,3.0,93,0.00,,SKC,0.45,54.00,VWS V14.00,2013-06-21 12:02:00,
2013-06-21 07:07:00,62.5,60.8,29.73,South,181,2.0,4.0,94,0.00,,SKC,0.45,63.00,VWS V14.00,2013-06-21 12:07:00,
2013-06-21 07:12:00,62.6,60.8,29.74,South,181,0.0,1.0,94,0.00,,SKC,0.45,70.00,VWS V14.00,2013-06-21 12:12:00,
2013-06-21 07:17:00,62.7,61.0,29.75,South,181,0.0,4.0,94,0.00,,SKC,0.45,81.00,VWS V14.00,2013-06-21 12:17:00,
2013-06-21 07:22:00,63.0,61.2,29.74,South,181,0.0,1.0,94,0.00,,SKC,0.45,91.00,VWS V14.00,2013-06-21 12:22:00,
2013-06-21 07:27:00,63.2,61.5,29.74,South,181,0.0,2.0,94,0.00,,SKC,0.45,100.00,VWS V14.00,2013-06-21 12:27:00,
2013-06-21 07:32:00,63.4,61.7,29.74,South,181,0.0,1.0,94,0.00,,SKC,0.45,109.00,VWS V14.00,2013-06-21 12:32:00,
2013-06-21 07:37:00,63.7,62.0,29.73,South,181,3.0,3.0,94,0.00,,SKC,0.45,116.00,VWS V14.00,2013-06-21 12:37:00,
2013-06-21 07:42:00,64.0,62.2,29.73,South,182,0.0,5.0,94,0.00,,SKC,0.45,123.00,VWS V14.00,2013-06-21 12:42:00,
2013-06-21 07:47:00,64.2,62.1,29.72,South,182,0.0,1.0,93,0.00,,SKC,0.45,130.00,VWS V14.00,2013-06-21 12:47:00,
2013-06-21 07:52:00,64.5,62.4,29.73,South,182,0.0,2.0,93,0.00,,SKC,0.45,139.00,VWS V14.00,2013-06-21 12:52:00,
2013-06-21 07:57:00,64.8,62.7,29.73,South,182,0.0,0.0,93,0.00,,SKC,0.45,153.00,VWS V14.00,2013-06-21 12:57:00,
2013-06-21 08:03:00,65.1,62.7,29.74,South,182,0.0,3.0,92,0.00,,SKC,0.45,165.00,VWS V14.00,2013-06-21 13:03:00,
2013-06-21 08:08:00,65.4,62.7,29.74,South,182,0.0,2.0,91,0.00,,SKC,0.45,169.00,VWS V14.00,2013-06-21 13:08:00,
2013-06-21 08:13:00,65.7,63.0,29.74,South,182,0.0,2.0,91,0.00,,SKC,0.45,179.00,VWS V14.00,2013-06-21 13:13:00,
2013-06-21 08:18:00,66.0,63.0,29.75,South,182,2.0,4.0,90,0.00,,SKC,0.45,188.00,VWS V14.00,2013-06-21 13:18:00,
2013-06-21 08:23:00,66.3,63.0,29.75,South,182,0.0,4.0,89,0.00,,SKC,0.45,213.00,VWS V14.00,2013-06-21 13:23:00,
2013-06-21 08:28:00,66.6,63.3,29.76,South,188,1.0,7.0,89,0.00,,SKC,0.45,236.00,VWS V14.00,2013-06-21 13:28:00,
2013-06-21 08:33:00,67.0,63.3,29.77,South,188,1.0,2.0,88,0.00,,SKC,0.45,279.00,VWS V14.00,2013-06-21 13:33:00,
2013-06-21 08:38:00,67.3,63.6,29.77,South,188,0.0,3.0,88,0.00,,SKC,0.45,299.00,VWS V14.00,2013-06-21 13:38:00,
2013-06-21 08:43:00,67.7,63.7,29.78,South,188,0.0,3.0,87,0.00,,SKC,0.45,334.00,VWS V14.00,2013-06-21 13:43:00,
2013-06-21 08:48:00,68.1,63.8,29.78,South,188,1.0,3.0,86,0.00,,SKC,0.45,374.00,VWS V14.00,2013-06-21 13:48:00,
2013-06-21 08:53:00,68.6,64.2,29.80,SSE,148,0.0,4.0,86,0.00,,SKC,0.45,359.00,VWS V14.00,2013-06-21 13:53:00,
2013-06-21 08:58:00,69.0,64.6,29.80,SSE,148,0.0,1.0,86,0.00,,SKC,0.45,322.00,VWS V14.00,2013-06-21 13:58:00,
2013-06-21 09:03:00,69.3,64.6,29.80,SSE,148,0.0,1.0,85,0.00,,SKC,0.45,345.00,VWS V14.00,2013-06-21 14:03:00,
2013-06-21 09:08:00,69.8,65.1,29.81,North,5,0.0,3.0,85,0.00,,SKC,0.45,364.00,VWS V14.00,2013-06-21 14:08:00,
2013-06-21 09:13:00,70.1,65.1,29.81,North,5,0.0,2.0,84,0.00,,SKC,0.45,369.00,VWS V14.00,2013-06-21 14:13:00,
2013-06-21 09:18:00,70.4,65.3,29.82,NE,49,4.0,4.0,84,0.00,,SKC,0.45,332.00,VWS V14.00,2013-06-21 14:18:00,
2013-06-21 09:23:00,70.6,64.8,29.82,NE,49,0.0,4.0,82,0.00,,SKC,0.45,323.00,VWS V14.00,2013-06-21 14:23:00,
2013-06-21 09:28:00,70.9,64.8,29.82,NE,53,0.0,2.0,81,0.00,,SKC,0.45,332.00,VWS V14.00,2013-06-21 14:28:00,
2013-06-21 09:33:00,70.9,64.8,29.83,East,94,2.0,3.0,81,0.00,,SKC,0.45,371.00,VWS V14.00,2013-06-21 14:33:00,
2013-06-21 09:38:00,70.9,64.8,29.83,ESE,111,4.0,7.0,81,0.00,,SKC,0.45,469.00,VWS V14.00,2013-06-21 14:38:00,
2013-06-21 09:43:00,71.0,64.2,29.82,ENE,72,3.0,11.0,79,0.00,,SKC,0.45,506.00,VWS V14.00,2013-06-21 14:43:00,
2013-06-21 09:48:00,71.0,64.5,29.83,East,100,1.0,5.0,80,0.00,,SKC,0.45,496.00,VWS V14.00,2013-06-21 14:48:00,
2013-06-21 09:53:00,71.1,64.3,29.82,ESE,106,6.0,10.0,79,0.00,,SKC,0.45,548.00,VWS V14.00,2013-06-21 14:53:00,
2013-06-21 09:58:00,71.2,65.1,29.82,East,92,1.0,7.0,81,0.00,,SKC,0.45,519.00,VWS V14.00,2013-06-21 14:58:00,
2013-06-21 10:03:00,71.4,64.6,29.81,East,88,5.0,7.0,79,0.00,,SKC,0.45,473.00,VWS V14.00,2013-06-21 15:03:00,
2013-06-21 10:08:00,71.4,65.3,29.82,ENE,78,4.0,9.0,81,0.00,,SKC,0.45,480.00,VWS V14.00,2013-06-21 15:08:00,
2013-06-21 10:14:00,71.6,65.1,29.81,ESE,105,3.0,5.0,80,0.00,,SKC,0.45,721.00,VWS V14.00,2013-06-21 15:14:00,
2013-06-21 10:19:00,72.0,65.1,29.81,ESE,105,5.0,9.0,79,0.00,,SKC,0.45,682.00,VWS V14.00,2013-06-21 15:19:00,
2013-06-21 10:24:00,72.1,65.2,29.81,ESE,117,4.0,5.0,79,0.00,,SKC,0.45,520.00,VWS V14.00,2013-06-21 15:24:00,
2013-06-21 10:30:00,72.1,65.2,29.81,ESE,119,10.0,10.0,79,0.00,,SKC,0.45,515.00,VWS V14.00,2013-06-21 15:30:00,
2013-06-21 10:35:00,72.0,64.8,29.80,ESE,117,3.0,6.0,78,0.00,,SKC,0.45,513.00,VWS V14.00,2013-06-21 15:35:00,
2013-06-21 10:42:00,72.1,64.9,29.79,ESE,103,4.0,7.0,78,0.00,,SKC,0.45,554.00,VWS V14.00,2013-06-21 15:42:00,
2013-06-21 10:47:00,72.0,65.1,29.79,ESE,119,5.0,10.0,79,0.00,,SKC,0.45,670.00,VWS V14.00,2013-06-21 15:47:00,
2013-06-21 10:52:00,72.1,65.2,29.79,SE,132,6.0,11.0,79,0.00,,SKC,0.45,570.00,VWS V14.00,2013-06-21 15:52:00,
2013-06-21 10:57:00,72.4,65.5,29.78,ESE,102,7.0,10.0,79,0.00,,SKC,0.45,728.00,VWS V14.00,2013-06-21 15:57:00,
2013-06-21 11:02:00,72.7,66.5,29.78,East,82,2.0,4.0,81,0.00,,SKC,0.45,710.00,VWS V14.00,2013-06-21 16:02:00,
2013-06-21 11:07:00,72.9,65.3,29.78,ESE,105,5.0,10.0,77,0.00,,SKC,0.45,622.00,VWS V14.00,2013-06-21 16:07:00,
2013-06-21 11:12:00,72.9,65.7,29.78,ESE,111,3.0,9.0,78,0.00,,SKC,0.45,705.00,VWS V14.00,2013-06-21 16:12:00,
2013-06-21 11:17:00,73.0,65.4,29.77,East,90,3.0,9.0,77,0.00,,SKC,0.45,733.00,VWS V14.00,2013-06-21 16:17:00,
2013-06-21 11:22:00,73.0,66.1,29.78,East,93,7.0,7.0,79,0.00,,SKC,0.45,803.00,VWS V14.00,2013-06-21 16:22:00,
2013-06-21 11:27:00,73.0,65.7,29.78,East,101,10.0,11.0,78,0.00,,SKC,0.45,694.00,VWS V14.00,2013-06-21 16:27:00,
2013-06-21 11:32:00,73.0,65.7,29.78,NNE,32,1.0,7.0,78,0.00,,SKC,0.45,682.00,VWS V14.00,2013-06-21 16:32:00,
2013-06-21 11:37:00,73.1,66.6,29.78,ESE,110,6.0,14.0,80,0.00,,SKC,0.45,621.00,VWS V14.00,2013-06-21 16:37:00,
2013-06-21 11:43:00,73.0,65.4,29.79,ESE,106,6.0,10.0,77,0.00,,SKC,0.45,617.00,VWS V14.00,2013-06-21 16:43:00,
2013-06-21 11:48:00,72.9,66.4,29.79,ENE,78,1.0,13.0,80,0.00,,SKC,0.45,601.00,VWS V14.00,2013-06-21 16:48:00,
2013-06-21 11:53:00,73.2,65.6,29.79,ESE,118,7.0,13.0,77,0.00,,SKC,0.45,657.00,VWS V14.00,2013-06-21 16:53:00,
2013-06-21 11:58:00,73.3,64.9,29.78,ESE,111,10.0,14.0,75,0.00,,SKC,0.45,636.00,VWS V14.00,2013-06-21 16:58:00,
2013-06-21 12:03:00,73.3,65.3,29.78,SE,125,6.0,12.0,76,0.00,,SKC,0.45,671.00,VWS V14.00,2013-06-21 17:03:00,
2013-06-21 12:08:00,73.4,65.4,29.78,East,79,8.0,14.0,76,0.00,,SKC,0.45,737.00,VWS V14.00,2013-06-21 17:08:00,
2013-06-21 12:13:00,73.6,66.7,29.78,East,80,4.0,13.0,79,0.00,,SKC,0.45,752.00,VWS V14.00,2013-06-21 17:13:00,
2013-06-21 12:18:00,74.0,67.1,29.78,ESE,120,4.0,10.0,79,0.00,,SKC,0.45,830.00,VWS V14.00,2013-06-21 17:18:00,
2013-06-21 12:24:00,74.3,65.9,29.79,ESE,109,5.0,9.0,75,0.00,,SKC,0.45,761.00,VWS V14.00,2013-06-21 17:24:00,
2013-06-21 12:29:00,74.2,66.2,29.79,ESE,119,8.0,12.0,76,0.00,,SKC,0.45,740.00,VWS V14.00,2013-06-21 17:29:00,
2013-06-21 12:35:00,74.2,65.8,29.79,SE,128,11.0,12.0,75,0.00,,SKC,0.45,768.00,VWS V14.00,2013-06-21 17:35:00,
2013-06-21 12:40:00,74.3,66.2,29.80,East,91,5.0,13.0,76,0.00,,SKC,0.45,835.00,VWS V14.00,2013-06-21 17:40:00,
2013-06-21 12:45:00,74.5,67.2,29.79,ESE,113,4.0,10.0,78,0.00,,SKC,0.45,687.00,VWS V14.00,2013-06-21 17:45:00,
2013-06-21 12:47:00,74.6,67.7,29.80,SE,135,9.0,11.0,79,0.00,,SKC,0.45,717.00,VWS V14.00,2013-06-21 17:47:00,
2013-06-21 12:48:00,74.7,67.0,29.80,East,90,6.0,11.0,77,0.00,,SKC,0.45,687.00,VWS V14.00,2013-06-21 17:48:00,
2013-06-21 12:49:00,74.7,67.0,29.80,SSE,154,6.0,7.0,77,0.00,,SKC,0.45,687.00,VWS V14.00,2013-06-21 17:49:00,
2013-06-21 12:53:00,74.8,66.3,29.80,ESE,107,5.0,13.0,75,0.00,,SKC,0.45,701.00,VWS V14.00,2013-06-21 17:53:00,
2013-06-21 12:59:00,74.8,66.7,29.80,ENE,67,5.0,9.0,76,0.00,,SKC,0.45,756.00,VWS V14.00,2013-06-21 17:59:00,
2013-06-21 13:01:00,74.8,66.7,29.80,ENE,65,1.0,10.0,76,0.00,,SKC,0.45,838.00,VWS V14.00,2013-06-21 18:01:00,
2013-06-21 13:08:00,75.1,67.4,29.80,ENE,72,5.0,14.0,77,0.00,,SKC,0.45,786.00,VWS V14.00,2013-06-21 18:08:00,
2013-06-21 13:13:00,75.4,68.4,29.80,East,88,9.0,11.0,79,0.00,,SKC,0.45,726.00,VWS V14.00,2013-06-21 18:13:00,
2013-06-21 13:18:00,75.5,67.8,29.80,East,92,4.0,11.0,77,0.00,,SKC,0.45,916.00,VWS V14.00,2013-06-21 18:18:00,
2013-06-21 13:23:00,75.7,67.6,29.80,East,92,4.0,11.0,76,0.00,,SKC,0.45,875.00,VWS V14.00,2013-06-21 18:23:00,
2013-06-21 13:25:00,75.7,67.6,29.80,East,98,5.0,12.0,76,0.00,,SKC,0.45,816.00,VWS V14.00,2013-06-21 18:25:00,
2013-06-21 13:27:00,75.8,67.7,29.80,ESE,115,6.0,12.0,76,0.00,,SKC,0.45,867.00,VWS V14.00,2013-06-21 18:27:00,
2013-06-21 13:28:00,75.8,68.1,29.80,East,84,4.0,6.0,77,0.00,,SKC,0.45,795.00,VWS V14.00,2013-06-21 18:28:00,
2013-06-21 13:33:00,76.0,67.9,29.80,East,96,5.0,6.0,76,0.00,,SKC,0.45,765.00,VWS V14.00,2013-06-21 18:33:00,
2013-06-21 13:39:00,76.2,68.1,29.81,ESE,113,5.0,5.0,76,0.00,,SKC,0.45,800.00,VWS V14.00,2013-06-21 18:39:00,
2013-06-21 13:44:00,76.3,68.2,29.81,SE,129,7.0,11.0,76,0.00,,SKC,0.45,775.00,VWS V14.00,2013-06-21 18:44:00,
2013-06-21 13:46:00,76.4,67.9,29.80,ESE,105,5.0,12.0,75,0.00,,SKC,0.45,768.00,VWS V14.00,2013-06-21 18:46:00,
2013-06-21 13:47:00,76.3,67.8,29.80,East,100,7.0,12.0,75,0.00,,SKC,0.45,745.00,VWS V14.00,2013-06-21 18:47:00,
2013-06-21 13:48:00,76.3,67.8,29.80,ESE,109,5.0,12.0,75,0.00,,SKC,0.45,768.00,VWS V14.00,2013-06-21 18:48:00,
2013-06-21 13:51:00,76.3,67.0,29.80,ESE,106,4.0,12.0,73,0.00,,SKC,0.45,786.00,VWS V14.00,2013-06-21 18:51:00,
2013-06-21 13:56:00,76.5,68.0,29.81,SE,145,9.0,11.0,75,0.00,,SKC,0.45,722.00,VWS V14.00,2013-06-21 18:56:00,
2013-06-21 13:59:00,76.6,68.1,29.81,ESE,107,9.0,9.0,75,0.00,,SKC,0.45,735.00,VWS V14.00,2013-06-21 18:59:00,
2013-06-21 14:04:00,76.7,67.8,29.81,East,98,7.0,8.0,74,0.00,,SKC,0.45,698.00,VWS V14.00,2013-06-21 19:04:00,
2013-06-21 14:09:00,76.7,67.8,29.80,East,83,2.0,6.0,74,0.00,,SKC,0.45,729.00,VWS V14.00,2013-06-21 19:09:00,
2013-06-21 14:15:00,76.8,67.9,29.80,East,87,3.0,10.0,74,0.00,,SKC,0.45,643.00,VWS V14.00,2013-06-21 19:15:00,
2013-06-21 14:20:00,77.1,68.2,29.78,ESE,109,5.0,7.0,74,0.00,,SKC,0.45,587.00,VWS V14.00,2013-06-21 19:20:00,
2013-06-21 14:25:00,77.0,68.5,29.77,East,91,4.0,12.0,75,0.00,,SKC,0.45,740.00,VWS V14.00,2013-06-21 19:25:00,
2013-06-21 14:28:00,76.9,68.8,29.76,ESE,103,5.0,12.0,76,0.00,,SKC,0.45,628.00,VWS V14.00,2013-06-21 19:28:00,
2013-06-21 14:33:00,76.8,68.7,29.77,East,84,12.0,12.0,76,0.00,,SKC,0.45,420.00,VWS V14.00,2013-06-21 19:33:00,
2013-06-21 14:38:00,76.5,68.4,29.77,ESE,104,8.0,11.0,76,0.00,,SKC,0.45,383.00,VWS V14.00,2013-06-21 19:38:00,
2013-06-21 14:42:00,76.2,68.1,29.77,East,94,10.0,14.0,76,0.00,,SKC,0.45,503.00,VWS V14.00,2013-06-21 19:42:00,
2013-06-21 14:47:00,76.3,69.3,29.77,East,99,3.0,11.0,79,0.00,,SKC,0.45,844.00,VWS V14.00,2013-06-21 19:47:00,
2013-06-21 14:52:00,77.0,70.0,29.78,ESE,107,4.0,9.0,79,0.00,,SKC,0.45,877.00,VWS V14.00,2013-06-21 19:52:00,
2013-06-21 14:57:00,77.6,69.8,29.78,ESE,105,7.0,12.0,77,0.00,,SKC,0.45,809.00,VWS V14.00,2013-06-21 19:57:00,
2013-06-21 14:59:00,77.6,69.1,29.79,SE,146,11.0,16.0,75,0.00,,SKC,0.45,756.00,VWS V14.00,2013-06-21 19:59:00,
2013-06-21 15:04:00,77.8,69.2,29.79,ESE,123,8.0,9.0,75,0.00,,SKC,0.45,754.00,VWS V14.00,2013-06-21 20:04:00,
2013-06-21 15:09:00,78.0,68.2,29.79,East,97,8.0,14.0,72,0.00,,SKC,0.45,413.00,VWS V14.00,2013-06-21 20:09:00,
2013-06-21 15:14:00,77.5,68.2,29.78,ESE,117,5.0,10.0,73,0.00,,SKC,0.45,480.00,VWS V14.00,2013-06-21 20:14:00,
2013-06-21 15:19:00,77.2,68.3,29.78,ESE,115,11.0,15.0,74,0.00,,SKC,0.45,475.00,VWS V14.00,2013-06-21 20:19:00,
2013-06-21 15:24:00,77.3,68.8,29.79,SE,135,5.0,12.0,75,0.00,,SKC,0.45,831.00,VWS V14.00,2013-06-21 20:24:00,
2013-06-21 15:29:00,77.7,69.2,29.78,East,100,10.0,12.0,75,0.00,,SKC,0.45,860.00,VWS V14.00,2013-06-21 20:29:00,
2013-06-21 15:34:00,78.0,69.4,29.78,ENE,71,11.0,11.0,75,0.00,,SKC,0.45,751.00,VWS V14.00,2013-06-21 20:34:00,
2013-06-21 15:39:00,77.9,68.9,29.77,ESE,113,5.0,8.0,74,0.00,,SKC,0.45,271.00,VWS V14.00,2013-06-21 20:39:00,
2013-06-21 15:50:00,77.0,69.2,29.75,ESE,109,5.0,12.0,77,0.00,,SKC,0.45,710.00,VWS V14.00,2013-06-21 20:50:00,
2013-06-21 15:55:00,77.2,69.4,29.75,ESE,109,6.0,11.0,77,0.00,,SKC,0.45,647.00,VWS V14.00,2013-06-21 20:55:00,
2013-06-21 16:00:00,77.4,70.0,29.75,East,84,5.0,11.0,78,0.00,,SKC,0.45,603.00,VWS V14.00,2013-06-21 21:00:00,
2013-06-21 16:05:00,77.5,69.0,29.76,ENE,69,6.0,10.0,75,0.00,,SKC,0.45,429.00,VWS V14.00,2013-06-21 21:05:00,
2013-06-21 16:08:00,77.4,68.9,29.77,ENE,74,7.0,11.0,75,0.00,,SKC,0.45,290.00,VWS V14.00,2013-06-21 21:08:00,
2013-06-21 16:13:00,77.3,69.5,29.78,NNE,26,1.0,7.0,77,0.00,,SKC,0.45,214.00,VWS V14.00,2013-06-21 21:13:00,
2013-06-21 16:18:00,77.1,69.0,29.79,NE,54,3.0,4.0,76,0.00,,SKC,0.45,155.00,VWS V14.00,2013-06-21 21:18:00,
2013-06-21 16:23:00,76.9,69.2,29.80,East,82,3.0,5.0,77,0.00,,SKC,0.45,97.00,VWS V14.00,2013-06-21 21:23:00,
2013-06-21 16:28:00,76.6,69.2,29.79,ENE,77,1.0,4.0,78,0.00,,SKC,0.45,58.00,VWS V14.00,2013-06-21 21:28:00,
2013-06-21 16:33:00,76.2,69.6,29.76,ENE,69,1.0,7.0,80,0.00,,SKC,0.45,49.00,VWS V14.00,2013-06-21 21:33:00,
2013-06-21 16:38:00,75.5,68.9,29.75,East,80,4.0,10.0,80,0.00,,SKC,0.45,76.00,VWS V14.00,2013-06-21 21:38:00,
2013-06-21 16:44:00,75.0,68.4,29.75,ESE,111,2.0,3.0,80,0.00,,SKC,0.45,141.00,VWS V14.00,2013-06-21 21:44:00,
2013-06-21 16:51:00,75.0,68.4,29.79,South,187,0.0,2.0,80,0.00,,SKC,0.45,83.00,VWS V14.00,2013-06-21 21:51:00,
2013-06-21 16:56:00,75.1,68.9,29.78,East,85,0.0,5.0,81,0.00,,SKC,0.45,125.00,VWS V14.00,2013-06-21 21:56:00,
2013-06-21 17:01:00,75.1,68.9,29.77,ENE,74,3.0,10.0,81,0.00,,SKC,0.45,65.00,VWS V14.00,2013-06-21 22:01:00,
2013-06-21 17:06:00,75.0,68.8,29.78,NE,53,0.0,4.0,81,0.00,,SKC,0.45,60.00,VWS V14.00,2013-06-21 22:06:00,
2013-06-21 17:11:00,74.9,68.7,29.79,NE,53,0.0,2.0,81,0.00,,SKC,0.45,35.00,VWS V14.00,2013-06-21 22:11:00,
2013-06-21 17:16:00,74.9,68.7,29.79,East,100,1.0,2.0,81,0.00,,SKC,0.45,40.00,VWS V14.00,2013-06-21 22:16:00,
2013-06-21 17:21:00,74.8,68.6,29.79,ESE,109,4.0,5.0,81,0.00,,SKC,0.45,32.00,VWS V14.00,2013-06-21 22:21:00,
2013-06-21 17:26:00,74.6,68.8,29.80,East,80,0.0,3.0,82,0.00,,SKC,0.45,19.00,VWS V14.00,2013-06-21 22:26:00,
2013-06-21 17:31:00,74.4,68.6,29.81,ESE,104,1.0,2.0,82,0.00,,SKC,0.45,14.00,VWS V14.00,2013-06-21 22:31:00,
2013-06-21 17:36:00,74.4,68.6,29.83,ESE,103,0.0,2.0,82,0.00,,SKC,0.45,9.00,VWS V14.00,2013-06-21 22:36:00,
2013-06-21 17:41:00,74.4,68.9,29.84,ESE,104,0.0,0.0,83,0.00,,SKC,0.45,5.00,VWS V14.00,2013-06-21 22:41:00,
2013-06-21 17:47:00,74.3,69.2,29.84,ESE,104,2.0,2.0,84,0.00,,SKC,0.45,5.00,VWS V14.00,2013-06-21 22:47:00,
2013-06-21 17:52:00,74.2,69.1,29.85,South,180,0.0,0.0,84,0.00,,SKC,0.45,0.00,VWS V14.00,2013-06-21 22:52:00,
2013-06-21 17:57:00,74.2,69.1,29.89,WSW,257,5.0,6.0,84,0.00,,SKC,0.45,0.00,VWS V14.00,2013-06-21 22:57:00,
2013-06-21 18:02:00,73.3,65.3,29.96,WNW,298,9.0,28.0,76,0.00,,SKC,0.45,0.00,VWS V14.00,2013-06-21 23:02:00,
2013-06-21 18:07:00,69.8,63.0,29.95,NE,37,3.0,25.0,79,0.14,,SKC,0.59,0.00,VWS V14.00,2013-06-21 23:07:00,
2013-06-21 18:12:00,67.0,61.7,29.92,NW,314,2.0,11.0,83,0.24,,SKC,0.69,0.00,VWS V14.00,2013-06-21 23:12:00,
2013-06-21 18:17:00,65.3,61.3,29.91,NW,323,6.0,7.0,87,0.37,,SKC,0.82,0.00,VWS V14.00,2013-06-21 23:17:00,
2013-06-21 18:22:00,64.1,60.2,29.91,East,92,0.0,6.0,87,0.44,,SKC,0.89,0.00,VWS V14.00,2013-06-21 23:22:00,
2013-06-21 18:27:00,63.3,59.7,29.91,NW,307,3.0,4.0,88,0.51,,SKC,0.96,0.00,VWS V14.00,2013-06-21 23:27:00,
2013-06-21 18:32:00,62.8,59.8,29.90,NW,325,1.0,3.0,90,0.53,,SKC,0.98,0.00,VWS V14.00,2013-06-21 23:32:00,
2013-06-21 18:37:00,62.5,59.8,29.88,NW,320,2.0,6.0,91,0.55,,SKC,1.00,0.00,VWS V14.00,2013-06-21 23:37:00,
2013-06-21 18:42:00,62.1,59.8,29.88,NE,44,2.0,10.0,92,0.56,,SKC,1.01,0.00,VWS V14.00,2013-06-21 23:42:00,
2013-06-21 18:47:00,61.6,59.3,29.87,ENE,73,2.0,7.0,92,0.57,,SKC,1.02,0.00,VWS V14.00,2013-06-21 23:47:00,
2013-06-21 18:52:00,61.4,59.4,29.87,East,79,3.0,6.0,93,0.58,,SKC,1.03,0.00,VWS V14.00,2013-06-21 23:52:00,
2013-06-21 18:57:00,61.2,59.5,29.88,East,89,5.0,9.0,94,0.58,,SKC,1.03,0.00,VWS V14.00,2013-06-21 23:57:00,
2013-06-21 19:02:00,61.1,59.4,29.89,ENE,60,2.0,8.0,94,0.58,,SKC,1.03,0.00,VWS V14.00,2013-06-22 00:02:00,
2013-06-21 19:07:00,61.0,59.3,29.86,NE,43,0.0,7.0,94,0.53,,SKC,1.03,0.00,VWS V14.00,2013-06-22 00:07:00,
2013-06-21 19:12:00,60.9,59.5,29.89,East,80,5.0,9.0,95,0.41,,SKC,1.03,0.00,VWS V14.00,2013-06-22 00:12:00,
2013-06-21 19:17:00,60.9,59.5,29.87,East,87,1.0,6.0,95,0.31,,SKC,1.04,0.00,VWS V14.00,2013-06-22 00:17:00,
2013-06-21 19:22:00,60.9,59.5,29.84,East,96,3.0,5.0,95,0.22,,SKC,1.06,0.00,VWS V14.00,2013-06-22 00:22:00,
2013-06-21 19:27:00,60.9,59.5,29.84,East,93,3.0,9.0,95,0.15,,SKC,1.06,0.00,VWS V14.00,2013-06-22 00:27:00,
2013-06-21 19:32:00,61.0,59.6,29.84,East,82,5.0,6.0,95,0.09,,SKC,1.06,0.00,VWS V14.00,2013-06-22 00:32:00,
2013-06-21 19:37:00,61.1,59.7,29.84,NE,34,2.0,6.0,95,0.07,,SKC,1.06,0.00,VWS V14.00,2013-06-22 00:37:00,
2013-06-21 19:42:00,61.2,59.8,29.83,ENE,69,0.0,4.0,95,0.06,,SKC,1.06,0.00,VWS V14.00,2013-06-22 00:42:00,
2013-06-21 19:48:00,61.3,60.2,29.83,ENE,60,8.0,8.0,96,0.05,,SKC,1.06,0.00,VWS V14.00,2013-06-22 00:48:00,
2013-06-21 19:53:00,61.4,60.2,29.83,East,88,3.0,7.0,96,0.05,,SKC,1.07,0.00,VWS V14.00,2013-06-22 00:53:00,
2013-06-21 19:58:00,61.5,60.3,29.83,ENE,76,3.0,13.0,96,0.04,,SKC,1.07,5.00,VWS V14.00,2013-06-22 00:58:00,
2013-06-21 20:03:00,61.6,60.5,29.82,ESE,102,2.0,9.0,96,0.06,,SKC,1.09,5.00,VWS V14.00,2013-06-22 01:03:00,
2013-06-21 20:08:00,61.6,60.2,29.82,East,101,4.0,9.0,95,0.06,,SKC,1.09,0.00,VWS V14.00,2013-06-22 01:08:00,
2013-06-21 20:13:00,61.5,60.1,29.82,East,83,5.0,9.0,95,0.06,,SKC,1.09,0.00,VWS V14.00,2013-06-22 01:13:00,
2013-06-21 20:18:00,61.5,60.3,29.82,East,99,4.0,9.0,96,0.07,,SKC,1.10,0.00,VWS V14.00,2013-06-22 01:18:00,
2013-06-21 20:23:00,61.5,60.3,29.83,ESE,106,9.0,14.0,96,0.05,,SKC,1.10,0.00,VWS V14.00,2013-06-22 01:23:00,
2013-06-21 20:28:00,61.5,60.3,29.80,ENE,77,4.0,12.0,96,0.08,,SKC,1.14,5.00,VWS V14.00,2013-06-22 01:28:00,
2013-06-21 20:33:00,61.4,60.2,29.80,North,11,7.0,11.0,96,0.10,,SKC,1.16,5.00,VWS V14.00,2013-06-22 01:33:00,
2013-06-21 20:38:00,61.4,60.2,29.79,East,86,9.0,13.0,96,0.11,,SKC,1.17,7.00,VWS V14.00,2013-06-22 01:38:00,
2013-06-21 20:43:00,61.4,60.2,29.79,ENE,74,5.0,13.0,96,0.11,,SKC,1.17,7.00,VWS V14.00,2013-06-22 01:43:00,
2013-06-21 20:48:00,61.4,60.2,29.78,ESE,102,7.0,15.0,96,0.11,,SKC,1.17,7.00,VWS V14.00,2013-06-22 01:48:00,
2013-06-21 20:53:00,61.4,60.2,29.77,ENE,64,1.0,15.0,96,0.10,,SKC,1.17,5.00,VWS V14.00,2013-06-22 01:53:00,
2013-06-21 20:58:00,61.5,60.3,29.77,East,88,7.0,15.0,96,0.10,,SKC,1.17,0.00,VWS V14.00,2013-06-22 01:58:00,
2013-06-21 21:03:00,61.7,60.5,29.76,ESE,111,6.0,15.0,96,0.10,,SKC,1.17,0.00,VWS V14.00,2013-06-22 02:03:00,
2013-06-21 21:08:00,61.9,60.8,29.76,ENE,57,9.0,19.0,96,0.08,,SKC,1.17,0.00,VWS V14.00,2013-06-22 02:08:00,
2013-06-21 21:13:00,62.0,60.6,29.77,ESE,113,11.0,16.0,95,0.08,,SKC,1.17,0.00,VWS V14.00,2013-06-22 02:13:00,
2013-06-21 21:18:00,62.1,60.7,29.77,East,86,4.0,13.0,95,0.08,,SKC,1.17,0.00,VWS V14.00,2013-06-22 02:18:00,
2013-06-21 21:23:00,62.2,60.8,29.75,East,96,10.0,13.0,95,0.07,,SKC,1.17,0.00,VWS V14.00,2013-06-22 02:23:00,
2013-06-21 21:28:00,62.2,60.8,29.72,ESE,106,16.0,19.0,95,0.06,,SKC,1.17,0.00,VWS V14.00,2013-06-22 02:28:00,
2013-06-21 21:33:00,62.4,60.7,29.72,ESE,120,9.0,17.0,94,0.02,,SKC,1.17,0.00,VWS V14.00,2013-06-22 02:33:00,
2013-06-21 21:38:00,62.7,61.0,29.76,ESE,105,9.0,13.0,94,0.01,,SKC,1.17,0.00,VWS V14.00,2013-06-22 02:38:00,
2013-06-21 21:43:00,62.9,61.2,29.77,East,99,4.0,13.0,94,0.00,,SKC,1.17,0.00,VWS V14.00,2013-06-22 02:43:00,
2013-06-21 21:48:00,63.2,61.5,29.79,SE,144,5.0,11.0,94,0.00,,SKC,1.17,0.00,VWS V14.00,2013-06-22 02:48:00,
2013-06-21 21:53:00,63.5,61.4,29.79,East,98,8.0,14.0,93,0.00,,SKC,1.17,0.00,VWS V14.00,2013-06-22 02:53:00,
2013-06-21 21:58:00,63.8,61.7,29.76,ESE,119,4.0,15.0,93,0.00,,SKC,1.17,0.00,VWS V14.00,2013-06-22 02:58:00,
2013-06-21 22:03:00,64.0,61.9,29.79,SE,132,7.0,7.0,93,0.00,,SKC,1.17,0.00,VWS V14.00,2013-06-22 03:03:00,
2013-06-21 22:17:00,65.0,62.9,29.79,ESE,116,5.0,15.0,93,0.00,,SKC,1.17,0.00,VWS V14.00,2013-06-22 03:17:00,
2013-06-21 22:23:00,65.3,63.2,29.81,ESE,115,9.0,13.0,93,0.00,,SKC,1.17,0.00,VWS V14.00,2013-06-22 03:23:00,
2013-06-21 22:28:00,65.6,63.5,29.82,SE,144,10.0,14.0,93,0.00,,SKC,1.17,0.00,VWS V14.00,2013-06-22 03:28:00,
2013-06-21 22:33:00,65.7,63.6,29.80,SE,134,4.0,14.0,93,0.00,,SKC,1.17,0.00,VWS V14.00,2013-06-22 03:33:00,
2013-06-21 22:38:00,65.7,63.3,29.79,SE,130,6.0,10.0,92,0.00,,SKC,1.17,0.00,VWS V14.00,2013-06-22 03:38:00,
2013-06-21 22:43:00,65.6,63.2,29.80,ESE,119,10.0,13.0,92,0.00,,SKC,1.17,0.00,VWS V14.00,2013-06-22 03:43:00,
2013-06-21 22:48:00,65.7,63.3,29.78,ESE,115,9.0,12.0,92,0.00,,SKC,1.17,0.00,VWS V14.00,2013-06-22 03:48:00,
2013-06-21 22:53:00,65.9,63.5,29.77,SE,138,11.0,13.0,92,0.00,,SKC,1.17,0.00,VWS V14.00,2013-06-22 03:53:00,
2013-06-21 22:58:00,66.1,63.4,29.77,ESE,108,5.0,11.0,91,0.00,,SKC,1.17,0.00,VWS V14.00,2013-06-22 03:58:00,
2013-06-21 23:01:00,66.2,63.8,29.76,SE,132,9.0,11.0,92,0.00,,SKC,1.17,0.00,VWS V14.00,2013-06-22 04:01:00,
2013-06-21 23:03:00,66.3,63.6,29.76,ESE,110,6.0,11.0,91,0.00,,SKC,1.17,0.00,VWS V14.00,2013-06-22 04:03:00,
2013-06-21 23:06:00,66.3,63.6,29.76,ESE,111,6.0,14.0,91,0.00,,SKC,1.17,0.00,VWS V14.00,2013-06-22 04:06:00,
2013-06-21 23:11:00,66.6,63.6,29.76,SE,138,10.0,17.0,90,0.00,,SKC,1.17,0.00,VWS V14.00,2013-06-22 04:11:00,
2013-06-21 23:16:00,66.9,63.6,29.75,ESE,107,11.0,16.0,89,0.00,,SKC,1.17,0.00,VWS V14.00,2013-06-22 04:16:00,
2013-06-21 23:21:00,67.1,63.4,29.76,ESE,123,12.0,17.0,88,0.00,,SKC,1.17,0.00,VWS V14.00,2013-06-22 04:21:00,
2013-06-21 23:26:00,67.3,63.3,29.75,SE,130,12.0,17.0,87,0.00,,SKC,1.17,0.00,VWS V14.00,2013-06-22 04:26:00,
2013-06-21 23:31:00,67.4,63.4,29.76,SSE,150,15.0,18.0,87,0.00,,SKC,1.17,0.00,VWS V14.00,2013-06-22 04:31:00,
2013-06-21 23:36:00,67.4,63.4,29.76,SSE,150,14.0,16.0,87,0.00,,SKC,1.17,0.00,VWS V14.00,2013-06-22 04:36:00,
2013-06-21 23:41:00,67.4,63.4,29.76,SE,134,11.0,17.0,87,0.00,,SKC,1.17,0.00,VWS V14.00,2013-06-22 04:41:00,
2013-06-21 23:46:00,67.3,63.6,29.76,SSE,152,10.0,15.0,88,0.00,,SKC,1.17,0.00,VWS V14.00,2013-06-22 04:46:00,
2013-06-21 23:51:00,67.2,63.5,29.76,SE,138,12.0,17.0,88,0.00,,SKC,1.17,0.00,VWS V14.00,2013-06-22 04:51:00,
2013-06-21 23:56:00,67.2,63.5,29.75,SSE,156,13.0,18.0,88,0.00,,SKC,1.17,0.00,VWS V14.00,2013-06-22 04:56:00,